SCP
0 0 0 0 0 0 -0 -0 -0 0 0 0 0 0 0 0 0 0 0 0 0 0 0 0 0 0 0 0 0 0 0 0 0 0 0 0 0 0 0 0 0 0 0
0 0 0 0 0 0 0 -0 -0 0 0 0 0 0 0 0 0 0 0 0 0 0 0 0 0 0 0 0 0 0 0 0 0 0 0 0 0 0 0 0 0 0 0
0 0 0 0 0 0 0 0 0 0 0 0 0 0 0 0 0 0 0 0 0 0 0 0 0 0 0 0 0 0 0 0 0 0 0 0 0 0 0 0 0 0 0
0 0 0 0 0 0 0 0 0 0 0 0 0 0 0 0 0 0 0 0 0 0 0 0 0 0 0 0 0 0 0 0 0 0 0 0 0 0 0 0 0 0 0
0 0 0 0 0 0 0 0 0 0 0 0 0 0 0 0 0 0 0 0 0 0 0 0 0 0 0 0 0 0 0 0 0 0 0 0 0 0 0 0 0 0 0
0 0 0 0 0 0 0 0 0 0 0 0 0 0 0 0 0 0 0 0 0 0 0 0 0 0 0 0 0 0 0 0 0 0 0 0 0 0 0 0 0 0 0
0 0 0 0 0 0 0 0 0 0 0 0 0 0 0 0 0 0 0 0 0 0 0 0 0 0 0 0 0 0 0 0 0 0 0 0 0 0 0 0 0 0 0
0 0 0 0 0 0 0 0 0 0 0 0 0 0 0 0 0 0 0 0 0 0 0 0 0 0 0 0 0 0 0 0 0 0 0 0 0 0 0 0 0 0 0
0 0 0 0 0 0 0 0 0 0 0 0 0 0 0 0 0 0 0 0 0 0 0 0 0 0 0 0 0 0 0 0 0 0 0 0 0 0 0 0 0 0 0
0 0 0 0 0 0 0 0 0 0 0 0 0 0 0 0 0 0 0 0 0 0 0 0 0 0 0 0 0 0 0 0 0 0 0 0 0 0 0 0 0 0 0
0 0 0 0 0 0 0 0 0 0 0 0 0 0 0 0 0 0 0 0 0 0 0 0 0 0 0 0 -0 -0 0 0 0 0 0 0 0 0 0 0 0 0 0
0 0 0 0 0 0 0 0 0 0 0 0 0 0 0 0 0 0 0 0 0 0 0 0 0 0 0 0 0 -0 0 0 0 0 0 0 0 0 0 0 0 0 0
0 0 0 0 0 0 0 0 0 0 0 0 0 0 0 0 0 0 0 0 0 0 0 0 0 0 0 0 0 0 0 0 0 0 0 0 0 0 0 0 0 0 0
0 0 0 0 0 0 0 0 0 0 0 0 0 0 0 0 0 0 0 0 0 0 0 0 0 0 0 0 0 0 0 0 0 0 0 0 0 0 0 0 0 0 0
0 0 0 0 0 0 1 0 0 0 0 0 0 0 0 0 0 0 0 0 0 0 0 0 0 0 0 0 0 0 0 0 0 0 0 0 0 0 0 0 0 0 0
0 0 0 0 0 0 1 1 0 0 0 0 0 0 0 0 0 0 0 0 0 0 0 0 0 0 0 0 0 0 0 0 0 0 0 0 0 0 0 0 0 0 0
0 0 0 0 0 0 1 1 1 1 0 0 0 0 0 0 0 0 0 0 0 0 0 0 0 0 0 0 0 0 0 0 0 0 0 0 0 0 0 0 0 0 0
0 0 1 1 0 1 1 1 1 1 1 1 0 0 0 0 0 0 0 0 0 0 0 0 0 0 0 0 0 0 0 0 0 0 0 0 0 0 0 0 0 0 0
1 1 1 1 1 1 1 1 1 1 1 1 1 0 0 0 0 0 0 0 0 0 0 0 0 0 0 0 0 0 0 0 0 0 0 0 0 0 0 0 0 0 0
1 1 1 1 1 1 1 1 1 1 1 1 1 1 0 0 0 0 0 0 0 0 0 0 0 0 0 0 0 0 0 0 0 0 0 0 0 0 0 0 0 0 0
1 1 1 1 2 2 2 3 2 2 2 2 1 1 1 1 1 1 1 0 0 0 0 0 0 0 0 0 0 0 0 0 0 0 0 0 0 0 0 0 0 0 0
2 2 2 2 2 3 3 4 3 3 3 2 2 2 1 1 1 1 1 1 1 0 0 0 0 0 0 0 0 0 0 0 0 0 0 0 0 0 0 0 0 0 0
2 2 2 2 2 3 4 4 4 4 3 3 2 2 1 1 1 1 1 1 1 0 0 0 0 0 0 0 0 0 0 0 0 0 0 0 0 0 0 0 0 0 0
1 1 2 2 2 3 4 4 4 4 3 3 2 2 1 1 1 1 1 1 1 0 0 0 0 0 0 0 0 0 0 0 0 0 0 0 0 0 0 0 0 0 0
1 1 1 2 2 3 3 4 4 4 3 2 2 2 1 1 1 1 1 1 1 0 0 0 0 0 0 0 0 0 0 0 0 0 0 0 0 0 0 0 0 0 0
0 1 1 1 2 2 3 4 4 3 2 2 1 1 1 1 1 1 1 1 1 0 0 0 0 0 0 0 0 0 0 0 0 0 0 0 0 0 0 0 0 0 0
Wind_Speed
12 14 15 14 13 12 12 12 12 12 12 11 11 10 10 10 10 10 9 9 9 9 9 8 8 7 6 6 6 6 7 7 6 6 5 6 6 7 7 8 6 5 6
16 15 15 14 13 12 12 11 11 11 11 11 10 10 10 10 10 10 9 9 9 9 9 9 8 8 7 7 7 7 6 6 4 3 4 5 6 7 8 9 10 6 7
17 15 14 14 13 12 11 11 10 10 10 10 10 10 10 10 10 10 9 9 9 9 9 9 8 8 7 7 7 7 6 4 2 1 0 2 5 7 8 8 9 9 8
17 14 13 14 13 12 11 10 10 10 10 10 10 10 10 10 9 9 9 9 9 9 9 8 8 8 8 7 6 5 4 2 0 2 1 4 4 7 8 8 9 9 9
16 13 15 14 13 12 11 10 10 10 10 10 10 10 10 10 9 9 9 9 9 9 9 8 8 8 7 6 5 4 3 1 2 2 4 6 4 5 7 8 8 8 8
15 15 14 13 13 12 11 10 10 10 10 10 10 9 9 9 9 9 9 10 10 10 9 9 9 8 7 6 5 4 2 2 4 0 5 5 4 5 7 7 7 7 8
15 15 14 13 12 11 11 10 10 10 10 10 10 9 9 9 9 9 9 10 10 9 9 8 8 7 6 6 5 3 0 3 4 2 5 5 4 6 6 6 6 6 7
15 15 13 13 12 11 10 10 10 10 10 10 10 9 9 9 9 9 9 10 9 8 7 7 6 6 5 5 4 1 2 6 2 5 6 5 6 6 6 5 5 5 6
15 15 13 12 10 11 10 10 10 10 10 10 10 9 8 8 8 9 9 9 8 7 6 5 4 4 4 4 3 1 4 6 4 2 8 5 6 6 5 5 5 4 4
13 14 14 13 12 10 9 10 10 10 10 10 10 9 9 8 8 9 9 8 8 7 5 4 3 2 3 3 3 3 5 7 3 5 6 5 7 6 5 4 4 4 4
11 12 13 13 12 11 11 11 10 10 9 9 8 9 8 6 7 7 9 10 7 6 5 4 4 4 4 5 6 6 5 4 2 6 6 7 7 5 5 4 4 4 4
11 12 11 12 11 10 8 9 7 7 7 7 6 8 6 6 5 7 11 10 8 7 6 6 6 6 6 4 6 6 4 5 2 6 6 9 7 5 5 4 3 4 4
9 10 11 11 11 9 6 7 4 4 5 6 7 8 6 4 4 7 5 5 5 6 5 5 6 5 6 5 5 5 3 1 2 6 6 8 6 4 4 4 4 3 3
10 10 10 11 10 10 9 7 5 4 4 5 6 8 6 3 4 6 5 6 5 4 4 5 5 7 6 6 5 4 4 1 3 5 5 8 6 4 3 3 3 3 2
9 9 10 10 11 10 8 6 7 6 6 7 6 7 7 4 3 4 3 5 5 4 3 3 4 3 1 2 1 3 3 3 4 6 5 7 6 4 4 4 3 3 2
10 10 9 9 9 10 9 7 6 6 5 5 5 6 8 5 3 3 3 3 2 3 4 4 3 3 1 1 3 3 3 3 3 6 6 5 6 5 4 4 3 3 3
6 9 10 9 9 9 10 9 6 5 7 5 5 7 7 6 5 4 3 4 3 3 4 2 1 2 2 2 2 1 3 3 2 4 6 6 5 5 5 4 4 4 4
2 4 8 9 9 8 7 8 5 5 6 5 5 4 5 7 6 5 2 3 3 2 1 2 1 1 1 2 2 2 2 2 2 2 4 5 6 5 4 5 5 5 5
3 2 5 8 8 7 7 6 5 5 5 5 4 4 3 5 5 5 3 2 2 2 1 2 2 1 1 1 1 2 1 2 1 2 2 5 6 6 5 6 7 6 5
6 4 4 6 7 7 6 5 4 4 5 4 4 4 3 2 4 5 4 2 1 2 1 0 1 1 1 0 1 1 1 1 2 2 1 2 3 6 7 7 5 4 6
6 6 5 4 7 5 5 5 5 5 4 4 4 5 4 2 3 5 3 3 2 2 1 1 0 1 0 1 1 2 1 2 3 3 2 2 2 4 6 7 5 5 4
11 9 8 5 6 7 6 6 6 6 4 4 4 4 5 3 3 4 4 3 2 1 1 1 1 0 1 1 1 1 2 3 3 3 3 2 2 2 3 4 6 6 6
12 12 11 9 6 6 8 6 5 5 4 4 4 3 3 3 3 3 3 3 2 3 3 3 3 3 3 2 2 2 2 3 2 3 4 4 4 2 3 2 4 6 7
12 12 13 12 10 5 5 9 9 7 6 5 5 4 3 3 2 3 2 2 2 2 3 5 5 4 4 4 3 2 3 3 2 2 2 2 4 4 4 3 2 1 5
11 11 11 12 10 8 2 6 8 6 5 4 5 6 5 3 2 2 2 1 2 2 3 5 4 4 4 5 4 3 3 3 3 3 2 3 2 2 3 2 3 2 3
10 9 10 10 10 10 7 3 5 7 8 7 6 6 4 3 2 1 2 1 2 2 3 4 5 5 5 5 4 4 3 3 3 3 3 3 3 3 3 2 2 3 3
Wind_Direction
126 127 138 136 132 126 120 115 113 113 112 110 107 105 101 97 95 93 92 91 88 86 86 87 87 89 90 89 88 83 81 81 79 78 79 71 62 53 41 28 23 80 83
125 128 139 137 136 131 126 121 119 116 114 112 110 106 101 98 97 96 95 94 94 92 90 88 86 87 90 97 100 98 96 94 94 96 99 93 78 64 53 47 51 67 70
122 130 139 140 139 135 132 129 125 120 118 114 110 106 102 99 97 95 94 92 93 93 92 92 91 90 93 100 105 107 108 105 105 76 261 105 94 72 63 58 61 67 68
125 137 139 142 142 141 140 137 132 128 123 118 114 111 108 103 99 97 95 93 94 95 94 93 93 91 92 97 104 108 112 117 194 322 32 79 79 78 71 67 64 66 70
131 134 131 146 145 145 146 145 141 136 131 126 121 117 113 109 105 100 97 95 94 95 95 93 93 92 91 96 102 107 113 164 284 307 87 93 82 84 78 73 69 70 73
129 126 136 147 148 151 153 152 148 143 139 135 129 123 120 117 113 108 102 96 91 89 91 93 93 91 91 96 100 104 120 257 279 137 93 103 105 92 86 81 76 75 74
131 129 142 148 152 155 157 157 155 151 147 143 137 132 128 125 121 117 111 105 99 93 91 90 90 89 93 104 105 100 355 298 269 122 111 110 120 109 97 91 86 82 81
135 135 140 151 155 159 162 162 161 158 155 151 146 142 138 134 130 127 121 116 109 104 99 93 91 92 97 111 113 93 315 300 219 124 109 105 109 102 98 97 97 94 94
139 138 145 155 161 165 168 169 168 166 163 159 156 151 147 142 140 137 133 128 123 120 115 109 104 104 108 121 132 258 293 310 310 127 112 96 96 95 99 104 109 114 111
146 147 156 162 165 168 171 176 175 173 170 167 163 159 156 155 156 153 151 140 139 138 137 138 142 149 154 160 186 242 285 309 296 93 94 91 84 87 95 104 116 126 123
158 156 160 164 167 170 170 170 174 177 176 172 171 171 170 180 177 175 158 147 153 156 163 175 191 205 204 203 217 236 264 256 172 95 88 92 85 84 90 98 112 127 130
166 164 163 165 165 168 171 154 175 177 173 188 180 178 199 208 179 156 141 155 164 174 187 206 218 227 226 211 220 229 248 247 154 106 101 98 89 85 88 93 103 120 128
174 168 164 167 166 164 154 155 172 170 168 195 188 185 207 208 150 135 155 156 175 190 202 206 220 228 217 210 195 200 217 300 85 99 109 105 97 93 95 95 96 101 116
173 172 169 167 168 168 164 163 165 172 175 187 189 195 198 204 189 166 169 171 181 195 205 194 216 218 215 187 204 193 157 135 102 108 117 114 108 104 111 118 112 109 111
167 172 180 173 174 173 165 161 176 177 177 190 187 197 193 186 201 170 179 164 182 177 171 244 243 185 121 66 30 50 80 97 107 111 123 126 122 116 116 121 126 127 139
166 177 178 180 176 170 164 174 182 174 173 187 178 198 191 179 191 156 187 147 198 167 169 220 229 126 135 88 57 50 25 48 103 126 135 135 132 127 124 125 127 128 138
177 179 174 179 182 178 174 181 178 171 174 180 176 205 191 172 182 161 193 154 198 188 184 218 194 133 140 123 123 87 78 22 354 121 137 150 144 128 124 123 123 119 116
213 192 176 180 186 184 173 174 171 175 171 171 170 210 201 171 177 162 171 152 181 174 176 121 24 112 169 167 169 175 144 142 281 110 168 157 150 142 132 128 122 118 116
318 243 192 181 185 183 171 171 172 172 164 164 168 182 213 177 166 143 141 143 168 141 149 160 185 192 202 168 166 149 189 165 148 255 218 148 144 149 145 145 142 136 132
312 289 247 190 184 185 165 173 169 169 163 160 160 163 187 153 141 125 125 136 103 114 111 321 156 113 30 53 283 192 186 194 214 255 337 112 162 160 153 159 160 159 156
319 307 284 221 186 186 171 175 169 168 163 157 154 155 156 142 111 116 127 133 98 103 147 254 278 159 194 344 337 336 310 255 246 202 206 250 224 146 159 169 174 165 164
344 332 307 281 212 194 188 184 172 162 159 153 143 139 144 150 136 129 132 133 135 137 196 261 289 120 206 219 189 194 304 307 281 243 195 193 267 158 197 188 174 166 167
347 342 332 316 284 216 188 180 162 145 149 151 146 139 139 141 130 126 138 145 170 178 204 225 226 211 218 244 224 182 188 230 271 274 226 194 206 203 206 230 194 177 164
347 344 339 333 321 295 194 177 171 166 169 168 153 137 127 123 125 130 134 179 207 205 212 220 222 208 208 226 248 234 226 213 185 284 299 240 203 204 207 210 218 179 153
353 350 344 344 343 345 338 174 170 162 158 138 128 124 121 108 106 122 132 164 233 233 227 228 231 213 201 212 221 229 243 260 239 213 256 287 276 224 205 210 181 191 159
360 358 358 2 6 6 13 69 139 144 138 134 133 131 121 110 91 93 139 165 227 241 243 242 231 224 210 215 220 222 217 219 227 223 223 241 255 256 220 205 182 188 178